Location: Ferques
(50.8300°N, 1.7599°E)
Time: 20:15:26
(UTC+00:00)

CENTAUR R/B - Pass Details

Date: 19 May 2025
Orbit: 644 x 1537 km, 63.4° (Epoch: 18 June)

Event Time Altitude Azimuth Distance (km) Brightness Sun altitude
Rises 21:20:59 0° 304° (NW) 3,859 7.1 -12.0°
Reaches altitude 10° 21:23:41 10° 313° (NW) 3,032 6.5 -12.3°
Maximum altitude 21:30:35 39° 20° (NNE) 1,879 4.3 -12.9°
Drops below altitude 10° 21:38:43 10° 87° (E) 3,582 5.2 -13.6°
Sets 21:42:10 0° 95° (E) 4,631 5.7 -13.9°
